Time[GMT],gps_lat[degrees_north](-3m),gps_lon[degrees_west](-3m),gps_2_lat[degrees_north](-3m),gps_2_lon[degrees_west](-3m)
2016-05-02 17:00,17.860082626,-66.523948669,17.97,-66.62
2016-05-02 18:00,17.860067368,-66.523933411,17.86,-66.52
2016-05-02 19:00,17.860149384,-66.523986816,17.86,-66.52
2016-05-02 20:00,17.860099792,-66.523963928,17.86,-66.52
2016-05-02 21:00,17.860099792,-66.523933411,17.86,-66.52
2016-05-02 22:00,17.860116959,-66.523986816,17.86,-66.52
2016-05-02 23:00,17.860067368,-66.523948669,17.86,-66.52
2016-05-03 00:00,17.860067368,-66.523986816,17.86,-66.52
2016-05-03 01:00,17.860082626,-66.523986816,17.86,-66.52
2016-05-03 02:00,17.860067368,-66.523963928,17.86,-66.52
2016-05-03 03:00,17.860050201,-66.523963928,17.86,-66.52
2016-05-03 04:00,17.860067368,-66.523963928,17.86,-66.52
2016-05-03 05:00,17.860116959,-66.523948669,17.86,-66.52
2016-05-03 06:00,17.860067368,-66.523963928,,
2016-05-03 07:00,17.860082626,-66.523986816,17.86,-66.52
2016-05-03 08:00,17.860067368,-66.523963928,17.86,-66.52
2016-05-03 09:00,17.860067368,-66.523948669,17.86,-66.52
2016-05-03 10:00,17.860082626,-66.523933411,17.86,-66.52
2016-05-03 11:00,17.860082626,-66.523933411,17.86,-66.52
2016-05-03 12:00,17.860050201,-66.523933411,17.86,-66.52
2016-05-03 13:00,17.860082626,-66.523948669,17.86,-66.52
2016-05-03 14:00,17.860067368,-66.523986816,17.86,-66.52
2016-05-03 15:00,17.860099792,-66.523963928,17.86,-66.52
2016-05-03 16:00,17.860099792,-66.523948669,17.86,-66.52
2016-05-03 17:00,17.860099792,-66.523963928,17.86,-66.52
2016-05-03 18:00,17.860082626,-66.523963928,17.86,-66.52
2016-05-03 19:00,17.860099792,-66.523963928,17.86,-66.52
2016-05-03 20:00,17.860116959,-66.523986816,17.86,-66.52
2016-05-03 21:00,17.860116959,-66.523948669,17.86,-66.52
2016-05-03 22:00,17.860082626,-66.523948669,17.86,-66.52
2016-05-03 23:00,17.860067368,-66.523933411,17.86,-66.52
2016-05-04 00:00,17.860067368,-66.523948669,,
2016-05-04 01:00,17.860082626,-66.523986816,17.86,-66.52
2016-05-04 02:00,17.860067368,-66.523963928,17.86,-66.52
2016-05-04 03:00,17.860067368,-66.523963928,17.86,-66.52
2016-05-04 04:00,17.860082626,-66.523963928,17.86,-66.52
2016-05-04 05:00,17.860134125,-66.523948669,17.86,-66.52
2016-05-04 06:00,17.860099792,-66.523963928,17.86,-66.52
2016-05-04 07:00,17.860099792,-66.523963928,17.86,-66.52
2016-05-04 08:00,17.860099792,-66.523963928,17.86,-66.52
2016-05-04 09:00,17.860067368,-66.523948669,17.86,-66.52
2016-05-04 10:00,17.860116959,-66.523918152,17.86,-66.52
2016-05-04 11:00,17.860116959,-66.523948669,17.86,-66.52
2016-05-04 12:00,17.860099792,-66.523918152,17.86,-66.52
2016-05-04 13:00,17.860082626,-66.523948669,17.86,-66.52
2016-05-04 14:00,17.860082626,-66.523963928,17.86,-66.52
2016-05-04 15:00,17.860099792,-66.523986816,17.86,-66.52
2016-05-04 16:00,17.860149384,-66.523948669,17.86,-66.52
2016-05-04 17:00,17.860149384,-66.523933411,17.86,-66.52
2016-05-04 18:00,17.860200882,-66.523933411,17.86,-66.52
2016-05-04 19:00,17.860166550,-66.523948669,17.86,-66.52
2016-05-04 20:00,17.860166550,-66.523933411,17.86,-66.52
2016-05-04 21:00,17.860149384,-66.523918152,17.86,-66.52
2016-05-04 22:00,17.860149384,-66.523933411,17.86,-66.52
2016-05-04 23:00,17.860116959,-66.523918152,17.86,-66.52
2016-05-05 00:00,17.860116959,-66.523918152,17.86,-66.52
2016-05-05 01:00,17.860116959,-66.523933411,17.86,-66.52
2016-05-05 02:00,17.860099792,-66.523918152,,
2016-05-05 03:00,17.860116959,-66.523933411,17.86,-66.52
2016-05-05 04:00,17.860166550,-66.523948669,17.86,-66.52
2016-05-05 05:00,17.860149384,-66.523963928,17.86,-66.52
2016-05-05 06:00,17.860134125,-66.523948669,17.86,-66.52
2016-05-05 07:00,17.860166550,-66.523933411,17.86,-66.52
2016-05-05 08:00,17.860116959,-66.523948669,17.86,-66.52
2016-05-05 09:00,17.860134125,-66.523986816,17.86,-66.52
2016-05-05 10:00,17.860082626,-66.523948669,17.86,-66.52
2016-05-05 11:00,17.860134125,-66.523948669,17.86,-66.52
2016-05-05 12:00,17.860099792,-66.523948669,17.86,-66.52
2016-05-05 13:00,17.860082626,-66.523963928,17.86,-66.52
2016-05-05 14:00,17.860134125,-66.523963928,17.86,-66.52
2016-05-05 15:00,17.860134125,-66.523963928,17.86,-66.52
2016-05-05 16:00,17.860134125,-66.523933411,17.86,-66.52
2016-05-05 17:00,17.860149384,-66.523948669,17.86,-66.52
2016-05-05 18:00,17.860134125,-66.523963928,17.86,-66.52
2016-05-05 19:00,17.860183716,-66.523963928,17.86,-66.52
2016-05-05 20:00,17.860166550,-66.523933411,17.86,-66.52
2016-05-05 21:00,17.860134125,-66.523933411,17.86,-66.52
2016-05-05 22:00,17.860149384,-66.523948669,17.86,-66.52
2016-05-05 23:00,17.860149384,-66.523933411,,
2016-05-06 00:00,17.860134125,-66.523933411,17.86,-66.52
2016-05-06 01:00,17.860149384,-66.523933411,17.86,-66.52
2016-05-06 02:00,17.860149384,-66.523933411,17.86,-66.52
2016-05-06 03:00,17.860149384,-66.523948669,17.86,-66.52
2016-05-06 04:00,17.860149384,-66.523948669,17.86,-66.52
2016-05-06 05:00,17.860166550,-66.523986816,17.86,-66.52
2016-05-06 06:00,17.860134125,-66.523963928,17.86,-66.52
2016-05-06 07:00,17.860134125,-66.523963928,17.86,-66.52
2016-05-06 08:00,17.860166550,-66.523963928,17.86,-66.52
2016-05-06 09:00,17.860134125,-66.523948669,,
2016-05-06 10:00,17.860166550,-66.523948669,17.86,-66.52
2016-05-06 11:00,17.860149384,-66.523948669,17.86,-66.52
2016-05-06 12:00,17.860134125,-66.523933411,17.86,-66.52
2016-05-06 13:00,17.860149384,-66.523948669,17.86,-66.52
2016-05-06 14:00,17.860149384,-66.523963928,17.86,-66.52
2016-05-06 15:00,17.860166550,-66.523986816,17.86,-66.52
2016-05-06 16:00,17.860166550,-66.523948669,17.86,-66.52
2016-05-06 17:00,17.860149384,-66.523933411,17.86,-66.52
2016-05-06 18:00,17.860166550,-66.523948669,17.86,-66.52
2016-05-06 19:00,17.860166550,-66.523948669,17.86,-66.52
2016-05-06 20:00,17.860149384,-66.523963928,17.86,-66.52
2016-05-06 21:00,17.860183716,-66.523948669,17.86,-66.52
2016-05-06 22:00,17.860166550,-66.523948669,17.86,-66.52
2016-05-06 23:00,17.860149384,-66.523948669,17.86,-66.52
2016-05-07 00:00,17.860183716,-66.523963928,17.86,-66.52
2016-05-07 01:00,17.860134125,-66.523933411,17.86,-66.52
2016-05-07 02:00,17.860149384,-66.523948669,,
2016-05-07 03:00,17.860149384,-66.523948669,17.86,-66.52
2016-05-07 04:00,17.860134125,-66.523963928,17.86,-66.52
2016-05-07 05:00,17.860149384,-66.523963928,17.86,-66.52
2016-05-07 06:00,17.860183716,-66.523986816,17.86,-66.52
2016-05-07 07:00,17.860183716,-66.523948669,17.86,-66.52
2016-05-07 08:00,17.860149384,-66.523948669,17.86,-66.52
2016-05-07 09:00,17.860166550,-66.523948669,17.86,-66.52
2016-05-07 10:00,17.860149384,-66.523948669,17.86,-66.52
2016-05-07 11:00,17.860134125,-66.523933411,17.86,-66.52
2016-05-07 12:00,17.860166550,-66.523948669,17.86,-66.52
2016-05-07 13:00,17.860149384,-66.523948669,17.86,-66.52
2016-05-07 14:00,17.860166550,-66.523948669,17.86,-66.52
2016-05-07 15:00,17.860200882,-66.523933411,17.86,-66.52
2016-05-07 16:00,17.860200882,-66.523918152,17.86,-66.52
2016-05-07 17:00,17.860216141,-66.523933411,17.86,-66.52
2016-05-07 18:00,17.860200882,-66.523918152,17.86,-66.52
2016-05-07 19:00,17.860216141,-66.523933411,17.86,-66.52
2016-05-07 20:00,17.860233307,-66.523902893,,
2016-05-07 21:00,17.860216141,-66.523933411,17.86,-66.52
2016-05-07 22:00,17.860183716,-66.523918152,17.86,-66.52
2016-05-07 23:00,17.860183716,-66.523918152,17.86,-66.52
2016-05-08 00:00,17.860183716,-66.523918152,17.86,-66.52
2016-05-08 01:00,17.860216141,-66.523902893,17.86,-66.52
2016-05-08 02:00,17.860200882,-66.523880005,17.86,-66.52
2016-05-08 03:00,17.860200882,-66.523880005,17.86,-66.52
2016-05-08 04:00,17.860200882,-66.523880005,17.86,-66.52
2016-05-08 05:00,17.860183716,-66.523880005,17.86,-66.52
2016-05-08 06:00,17.860183716,-66.523880005,17.86,-66.52
2016-05-08 07:00,17.860166550,-66.523902893,17.86,-66.52
2016-05-08 08:00,17.860166550,-66.523918152,17.86,-66.52
2016-05-08 09:00,17.860183716,-66.523902893,17.86,-66.52
2016-05-08 10:00,17.860166550,-66.523880005,17.86,-66.52
2016-05-08 11:00,17.860000610,-66.523902893,17.86,-66.52
2016-05-08 12:00,17.860067368,-66.523948669,17.86,-66.52
2016-05-08 13:00,17.860050201,-66.523880005,17.86,-66.52
2016-05-08 14:00,17.860067368,-66.523933411,17.86,-66.52
2016-05-08 15:00,17.860082626,-66.523864746,17.86,-66.52
2016-05-08 16:00,17.860067368,-66.523880005,17.86,-66.52
2016-05-08 17:00,17.860033035,-66.523864746,17.86,-66.52
2016-05-08 18:00,17.860050201,-66.523803711,17.86,-66.52
2016-05-08 19:00,17.860099792,-66.523834229,17.86,-66.52
2016-05-08 20:00,17.860067368,-66.523834229,17.86,-66.52
2016-05-08 21:00,17.860050201,-66.523880005,17.86,-66.52
2016-05-08 22:00,17.860082626,-66.523902893,17.86,-66.52
2016-05-08 23:00,17.860067368,-66.523902893,17.86,-66.52
2016-05-09 00:00,17.860050201,-66.523918152,17.86,-66.52
2016-05-09 01:00,17.860082626,-66.523918152,17.86,-66.52
2016-05-09 02:00,17.860050201,-66.523880005,17.86,-66.52
2016-05-09 03:00,17.860015869,-66.523849487,17.86,-66.52
2016-05-09 04:00,17.860015869,-66.523849487,17.86,-66.52
2016-05-09 05:00,17.860015869,-66.523834229,17.86,-66.52
2016-05-09 06:00,17.860067368,-66.523849487,17.86,-66.52
2016-05-09 07:00,17.860033035,-66.523849487,17.86,-66.52
2016-05-09 08:00,17.860050201,-66.523902893,17.86,-66.52
2016-05-09 09:00,17.860067368,-66.523933411,17.86,-66.52
2016-05-09 10:00,17.860082626,-66.523933411,17.86,-66.52
2016-05-09 11:00,17.860099792,-66.523948669,17.86,-66.52
2016-05-09 12:00,17.860099792,-66.523948669,17.86,-66.52
2016-05-09 13:00,17.860099792,-66.523963928,17.86,-66.52
2016-05-09 14:00,17.860067368,-66.523933411,17.86,-66.52
2016-05-09 15:00,17.860099792,-66.523933411,17.86,-66.52
2016-05-09 16:00,17.860116959,-66.523948669,17.86,-66.52
2016-05-09 17:00,17.860134125,-66.523986816,17.86,-66.52
2016-05-09 18:00,17.860116959,-66.523948669,17.86,-66.52
2016-05-09 19:00,17.860166550,-66.523933411,17.86,-66.52
2016-05-09 20:00,17.860134125,-66.523933411,17.86,-66.52
2016-05-09 21:00,17.860134125,-66.523948669,17.86,-66.52
2016-05-09 22:00,17.860116959,-66.523948669,17.86,-66.52
2016-05-09 23:00,17.860134125,-66.523933411,17.86,-66.52
2016-05-10 00:00,17.860099792,-66.523948669,17.86,-66.52
2016-05-10 01:00,17.860134125,-66.523948669,,
2016-05-10 02:00,17.860082626,-66.523918152,17.86,-66.52
2016-05-10 03:00,17.860033035,-66.523902893,17.86,-66.52
2016-05-10 04:00,17.860082626,-66.523918152,17.86,-66.52
2016-05-10 05:00,17.860050201,-66.523918152,17.86,-66.52
2016-05-10 06:00,17.860050201,-66.523918152,17.86,-66.52
2016-05-10 07:00,17.860067368,-66.523918152,17.86,-66.52
2016-05-10 08:00,17.860067368,-66.523918152,17.86,-66.52
2016-05-10 09:00,17.860082626,-66.523948669,17.86,-66.52
2016-05-10 10:00,17.860116959,-66.523948669,17.86,-66.52
2016-05-10 11:00,17.860149384,-66.523963928,17.86,-66.52
2016-05-10 12:00,,,,
2016-05-10 13:00,17.860116959,-66.523963928,17.86,-66.52
2016-05-10 14:00,17.860099792,-66.523803711,17.86,-66.52
2016-05-10 15:00,17.860099792,-66.523963928,17.86,-66.52
2016-05-10 16:00,17.860099792,-66.523948669,17.86,-66.52
2016-05-10 17:00,17.860116959,-66.523948669,17.86,-66.52
2016-05-10 18:00,17.860134125,-66.523963928,17.86,-66.52
2016-05-10 19:00,17.860149384,-66.523963928,17.86,-66.52
2016-05-10 20:00,17.860149384,-66.523933411,17.86,-66.52
2016-05-10 21:00,17.860134125,-66.523948669,17.86,-66.52
2016-05-10 22:00,17.860116959,-66.523963928,17.86,-66.52
2016-05-10 23:00,,,,
2016-05-11 00:00,17.860116959,-66.523963928,17.86,-66.52
2016-05-11 01:00,17.860099792,-66.523948669,17.86,-66.52
2016-05-11 02:00,17.860116959,-66.523933411,17.86,-66.52
2016-05-11 03:00,17.860082626,-66.523948669,17.86,-66.52
2016-05-11 04:00,17.860082626,-66.523948669,17.86,-66.52
2016-05-11 05:00,17.860067368,-66.523918152,17.86,-66.52
2016-05-11 06:00,17.860015869,-66.523834229,17.86,-66.52
2016-05-11 07:00,17.860033035,-66.523818970,17.86,-66.52
2016-05-11 08:00,17.860033035,-66.523849487,17.86,-66.52
2016-05-11 09:00,17.860033035,-66.523918152,17.86,-66.52
2016-05-11 10:00,17.860067368,-66.523933411,17.86,-66.52
2016-05-11 11:00,17.860082626,-66.523933411,17.86,-66.52
2016-05-11 12:00,17.860099792,-66.523948669,17.86,-66.52
2016-05-11 13:00,17.860099792,-66.523948669,17.86,-66.52
2016-05-11 14:00,17.860082626,-66.523948669,17.86,-66.52
2016-05-11 15:00,17.860067368,-66.523948669,17.86,-66.52
2016-05-11 16:00,17.860099792,-66.523948669,17.86,-66.52
2016-05-11 17:00,17.860134125,-66.523933411,17.86,-66.52
2016-05-11 18:00,17.860116959,-66.523933411,17.86,-66.52
2016-05-11 19:00,17.860149384,-66.523902893,17.86,-66.52
2016-05-11 20:00,17.860099792,-66.523864746,17.86,-66.52
2016-05-11 21:00,17.860099792,-66.523880005,17.86,-66.52
2016-05-11 22:00,17.860067368,-66.523933411,17.86,-66.52
2016-05-11 23:00,17.860116959,-66.523948669,,
2016-05-12 00:00,,,,
2016-05-12 01:00,17.860099792,-66.523948669,17.86,-66.52
2016-05-12 02:00,17.860082626,-66.523933411,17.86,-66.52
2016-05-12 03:00,17.860067368,-66.523933411,17.86,-66.52
2016-05-12 04:00,17.860033035,-66.523849487,17.86,-66.52
2016-05-12 05:00,17.860033035,-66.523834229,17.86,-66.52
2016-05-12 06:00,17.860033035,-66.523834229,17.86,-66.52
2016-05-12 07:00,17.860033035,-66.523803711,17.86,-66.52
2016-05-12 08:00,17.859983444,-66.523750305,17.86,-66.52
2016-05-12 09:00,17.859949112,-66.523780823,17.86,-66.52
2016-05-12 10:00,17.860015869,-66.523880005,17.86,-66.52
2016-05-12 11:00,17.860050201,-66.523933411,17.86,-66.52
2016-05-12 12:00,17.860050201,-66.523933411,17.86,-66.52
2016-05-12 13:00,17.860067368,-66.523933411,17.86,-66.52
2016-05-12 14:00,17.860050201,-66.523933411,17.86,-66.52
2016-05-12 15:00,17.860067368,-66.523948669,17.86,-66.52
2016-05-12 16:00,17.860099792,-66.523948669,17.86,-66.52
2016-05-12 17:00,17.860099792,-66.523986816,17.86,-66.52
2016-05-12 18:00,17.860134125,-66.523963928,17.86,-66.52
2016-05-12 19:00,17.860116959,-66.523963928,17.86,-66.52
2016-05-12 20:00,17.860149384,-66.523963928,17.86,-66.52
2016-05-12 21:00,17.860149384,-66.523963928,17.86,-66.52
2016-05-12 22:00,17.860082626,-66.523963928,17.86,-66.52
2016-05-12 23:00,17.860067368,-66.523948669,17.86,-66.52
2016-05-13 00:00,17.860067368,-66.523948669,17.86,-66.52
2016-05-13 01:00,17.860082626,-66.524002075,,
2016-05-13 02:00,17.860116959,-66.523948669,17.86,-66.52
2016-05-13 03:00,17.860166550,-66.523948669,,
2016-05-13 04:00,17.860166550,-66.523948669,17.86,-66.52
2016-05-13 05:00,17.860149384,-66.523933411,17.86,-66.52
2016-05-13 06:00,17.860099792,-66.523948669,17.86,-66.52
2016-05-13 07:00,17.860116959,-66.523933411,17.86,-66.52
2016-05-13 08:00,17.860015869,-66.523849487,17.86,-66.52
2016-05-13 09:00,17.860000610,-66.523834229,17.86,-66.52
2016-05-13 10:00,17.860015869,-66.523918152,17.86,-66.52
2016-05-13 11:00,17.860082626,-66.523948669,17.86,-66.52
2016-05-13 12:00,17.860134125,-66.523948669,17.86,-66.52
2016-05-13 13:00,17.860082626,-66.523986816,17.86,-66.52
2016-05-13 14:00,17.860099792,-66.523963928,17.86,-66.52
2016-05-13 15:00,17.860099792,-66.523948669,17.86,-66.52
2016-05-13 16:00,17.860134125,-66.523963928,17.86,-66.52
2016-05-13 17:00,17.860134125,-66.523948669,17.86,-66.52
2016-05-13 18:00,17.860134125,-66.523948669,17.86,-66.52
2016-05-13 19:00,17.860149384,-66.523986816,,
2016-05-13 20:00,17.860149384,-66.523948669,17.86,-66.52
2016-05-13 21:00,17.860134125,-66.523933411,17.86,-66.52
2016-05-13 22:00,17.860116959,-66.523963928,17.86,-66.52
2016-05-13 23:00,17.860099792,-66.523933411,17.86,-66.52
2016-05-14 00:00,17.860099792,-66.523948669,17.86,-66.52
2016-05-14 01:00,17.860099792,-66.523963928,17.86,-66.52
2016-05-14 02:00,17.860082626,-66.523948669,17.86,-66.52
2016-05-14 03:00,17.860082626,-66.523948669,17.86,-66.52
2016-05-14 04:00,17.860099792,-66.523963928,17.86,-66.52
2016-05-14 05:00,17.860082626,-66.523933411,17.86,-66.52
2016-05-14 06:00,17.860099792,-66.523948669,,
2016-05-14 07:00,17.860067368,-66.523948669,17.86,-66.52
2016-05-14 08:00,17.860033035,-66.523933411,17.86,-66.52
2016-05-14 09:00,17.860067368,-66.523948669,17.86,-66.52
2016-05-14 10:00,17.860099792,-66.523948669,,
2016-05-14 11:00,17.860033035,-66.523933411,17.86,-66.52
2016-05-14 12:00,17.860099792,-66.523948669,17.86,-66.52
2016-05-14 13:00,17.860099792,-66.523986816,17.86,-66.52
2016-05-14 14:00,17.860116959,-66.523986816,,
2016-05-14 15:00,17.860149384,-66.523963928,17.86,-66.52
2016-05-14 16:00,17.860116959,-66.523963928,17.86,-66.52
2016-05-14 17:00,17.860116959,-66.523963928,17.86,-66.52
2016-05-14 18:00,17.860134125,-66.523933411,17.86,-66.52
2016-05-14 19:00,17.860134125,-66.523963928,17.86,-66.52
2016-05-14 20:00,17.860134125,-66.523933411,17.86,-66.52
2016-05-14 21:00,17.860134125,-66.523963928,17.86,-66.52
2016-05-14 22:00,17.860082626,-66.523948669,17.86,-66.52
2016-05-14 23:00,17.860116959,-66.523948669,17.86,-66.52
2016-05-15 00:00,17.860099792,-66.523948669,17.86,-66.52
2016-05-15 01:00,17.860099792,-66.523948669,17.86,-66.52
2016-05-15 02:00,17.860134125,-66.523963928,17.86,-66.52
2016-05-15 03:00,17.860099792,-66.523986816,17.86,-66.52
2016-05-15 04:00,17.860082626,-66.523963928,17.86,-66.52
2016-05-15 05:00,17.860099792,-66.523963928,17.86,-66.52
2016-05-15 06:00,17.860116959,-66.523933411,17.86,-66.52
2016-05-15 07:00,17.860099792,-66.523948669,17.86,-66.52
2016-05-15 08:00,17.860082626,-66.523933411,17.86,-66.52
2016-05-15 09:00,17.860067368,-66.523948669,17.86,-66.52
2016-05-15 10:00,17.860050201,-66.523933411,17.86,-66.52
2016-05-15 11:00,17.860134125,-66.523963928,17.86,-66.52
2016-05-15 12:00,17.860166550,-66.523948669,17.86,-66.52
2016-05-15 13:00,17.860134125,-66.523948669,17.86,-66.52
2016-05-15 14:00,17.860099792,-66.523963928,17.86,-66.52
2016-05-15 15:00,17.860116959,-66.523963928,17.86,-66.52
2016-05-15 16:00,17.860099792,-66.523986816,17.86,-66.52
2016-05-15 17:00,17.860134125,-66.523933411,17.86,-66.52
2016-05-15 18:00,17.860149384,-66.523963928,17.86,-66.52
2016-05-15 19:00,17.860149384,-66.523986816,17.86,-66.52
2016-05-15 20:00,17.860134125,-66.523963928,17.86,-66.52
2016-05-15 21:00,17.860134125,-66.524002075,17.86,-66.52
2016-05-15 22:00,17.860099792,-66.523963928,17.86,-66.52
2016-05-15 23:00,17.860082626,-66.523918152,17.86,-66.52
2016-05-16 00:00,17.860099792,-66.523948669,17.86,-66.52
2016-05-16 01:00,17.860082626,-66.523948669,17.86,-66.52
2016-05-16 02:00,17.860116959,-66.523948669,17.86,-66.52
2016-05-16 03:00,17.860067368,-66.523963928,17.86,-66.52
2016-05-16 04:00,17.860082626,-66.523963928,17.86,-66.52
2016-05-16 05:00,17.860082626,-66.523948669,17.86,-66.52
2016-05-16 06:00,17.860099792,-66.523963928,17.86,-66.52
2016-05-16 07:00,17.860082626,-66.523933411,17.86,-66.52
2016-05-16 08:00,17.860082626,-66.523948669,17.86,-66.52
2016-05-16 09:00,17.860082626,-66.523963928,17.86,-66.52
2016-05-16 10:00,,,,
2016-05-16 11:00,17.860050201,-66.523948669,17.86,-66.52
2016-05-16 12:00,17.860082626,-66.523963928,17.86,-66.52
2016-05-16 13:00,17.860099792,-66.523963928,17.86,-66.52
2016-05-16 14:00,17.860082626,-66.523948669,17.86,-66.52
2016-05-16 15:00,17.860116959,-66.523986816,17.86,-66.52
2016-05-16 16:00,17.860099792,-66.523948669,17.86,-66.52
2016-05-16 17:00,17.860099792,-66.523963928,17.86,-66.52
2016-05-16 18:00,17.860149384,-66.523986816,17.86,-66.52
2016-05-16 19:00,17.860116959,-66.523963928,17.86,-66.52
2016-05-16 20:00,17.860134125,-66.523963928,17.86,-66.52
2016-05-16 21:00,17.860099792,-66.524002075,17.86,-66.52
2016-05-16 22:00,17.860116959,-66.523963928,17.86,-66.52
2016-05-16 23:00,17.860082626,-66.523948669,17.86,-66.52
2016-05-17 00:00,17.860099792,-66.523963928,17.86,-66.52
2016-05-17 01:00,17.860082626,-66.523948669,,
2016-05-17 02:00,17.860067368,-66.523948669,,
2016-05-17 03:00,17.860067368,-66.523963928,17.86,-66.52
2016-05-17 04:00,17.860099792,-66.523963928,17.86,-66.52
2016-05-17 05:00,17.860082626,-66.523963928,17.86,-66.52
2016-05-17 06:00,17.860067368,-66.523963928,17.86,-66.52
2016-05-17 07:00,17.860050201,-66.523963928,17.86,-66.52
2016-05-17 08:00,17.860050201,-66.523933411,17.86,-66.52
2016-05-17 09:00,17.860067368,-66.523933411,17.86,-66.52
2016-05-17 10:00,17.860067368,-66.523933411,17.86,-66.52
2016-05-17 11:00,17.860082626,-66.523933411,17.86,-66.52
2016-05-17 12:00,17.860067368,-66.523963928,17.86,-66.52
2016-05-17 13:00,17.860067368,-66.523948669,17.86,-66.52
2016-05-17 14:00,17.860099792,-66.524101257,17.86,-66.52
2016-05-17 15:00,17.860067368,-66.523963928,17.86,-66.52
2016-05-17 16:00,17.860116959,-66.523948669,17.86,-66.52
2016-05-17 17:00,17.860099792,-66.523963928,17.86,-66.52
2016-05-17 18:00,17.860116959,-66.523963928,17.86,-66.52
2016-05-17 19:00,17.860116959,-66.523963928,17.86,-66.52
2016-05-17 20:00,17.860149384,-66.523963928,17.86,-66.52
2016-05-17 21:00,17.860149384,-66.524002075,17.86,-66.52
2016-05-17 22:00,17.860099792,-66.523948669,17.86,-66.52
2016-05-17 23:00,17.860116959,-66.523963928,17.86,-66.52
2016-05-18 00:00,17.860116959,-66.523986816,17.86,-66.52
2016-05-18 01:00,17.860099792,-66.523963928,17.86,-66.52
2016-05-18 02:00,17.860099792,-66.523948669,17.86,-66.52
2016-05-18 03:00,17.860067368,-66.523963928,17.86,-66.52
2016-05-18 04:00,17.860099792,-66.523963928,17.86,-66.52
2016-05-18 05:00,17.860082626,-66.523986816,17.86,-66.52
2016-05-18 06:00,17.860099792,-66.523986816,17.86,-66.52
2016-05-18 07:00,17.860082626,-66.524002075,17.86,-66.52
2016-05-18 08:00,17.860067368,-66.523963928,17.86,-66.52
2016-05-18 09:00,17.860116959,-66.523948669,17.86,-66.52
2016-05-18 10:00,17.860099792,-66.523963928,17.86,-66.52
2016-05-18 11:00,17.860082626,-66.523963928,17.86,-66.52
2016-05-18 12:00,17.860067368,-66.523963928,17.86,-66.52
2016-05-18 13:00,17.860099792,-66.523651123,17.86,-66.52
2016-05-18 14:00,17.860067368,-66.523963928,17.86,-66.52
2016-05-18 15:00,17.860067368,-66.523963928,17.86,-66.52
2016-05-18 16:00,17.860082626,-66.523933411,17.86,-66.52
2016-05-18 17:00,17.860067368,-66.523948669,17.86,-66.52
2016-05-18 18:00,17.860116959,-66.523963928,,
2016-05-18 19:00,17.860116959,-66.523948669,17.86,-66.52
2016-05-18 20:00,17.860134125,-66.523963928,17.86,-66.52
2016-05-18 21:00,17.860082626,-66.523933411,17.86,-66.52
2016-05-18 22:00,17.860099792,-66.523948669,17.86,-66.52
2016-05-18 23:00,17.860099792,-66.523963928,17.86,-66.52
2016-05-19 00:00,17.860099792,-66.523948669,17.86,-66.52
2016-05-19 01:00,17.860082626,-66.523986816,,
2016-05-19 02:00,17.860067368,-66.523933411,17.86,-66.52
2016-05-19 03:00,17.860050201,-66.523963928,,
2016-05-19 04:00,17.860067368,-66.523948669,,
2016-05-19 05:00,17.860050201,-66.523948669,17.86,-66.52
2016-05-19 06:00,17.860067368,-66.523963928,17.86,-66.52
2016-05-19 07:00,17.860099792,-66.523948669,17.86,-66.52
2016-05-19 08:00,17.860050201,-66.523948669,17.86,-66.52
2016-05-19 09:00,,,,
2016-05-19 10:00,17.860050201,-66.523933411,17.86,-66.52
2016-05-19 11:00,17.860099792,-66.523948669,17.86,-66.52
2016-05-19 12:00,17.860082626,-66.523948669,17.86,-66.52
2016-05-19 13:00,17.860067368,-66.523948669,17.86,-66.52
2016-05-19 14:00,17.860082626,-66.523948669,17.86,-66.52
2016-05-19 15:00,17.860099792,-66.523963928,17.86,-66.52
2016-05-19 16:00,17.860099792,-66.523948669,17.86,-66.52
2016-05-19 17:00,17.860082626,-66.523948669,17.86,-66.52
2016-05-19 18:00,17.860116959,-66.523948669,17.86,-66.52
2016-05-19 19:00,17.860116959,-66.523963928,17.86,-66.52
2016-05-19 20:00,17.860099792,-66.523963928,17.86,-66.52
2016-05-19 21:00,17.860082626,-66.523963928,17.86,-66.52
2016-05-19 22:00,17.860082626,-66.523963928,17.86,-66.52
2016-05-19 23:00,17.860116959,-66.523948669,17.86,-66.52
2016-05-20 00:00,17.860082626,-66.523948669,17.86,-66.52
2016-05-20 01:00,17.860082626,-66.523933411,17.86,-66.52
2016-05-20 02:00,17.860067368,-66.523963928,17.86,-66.52